Regional Weather Roundup
Issued by NWS

Home | Current Version | Previous Version | Graphics & Text | Print | Product List | Glossary On
Versions: 1 2 3 4 5 6 7 8 9 10 11 12 13 14 15 16 17 18 19 20 21 22 23 24 25 26 27 28 29 30 31 32 33 34 35 36 37 38 39 40 41 42 43 44 45 46 47 48 49 50
000
ASUS43 KDMX 021006
RWRIA

WEATHER ROUNDUP FOR IOWA
NATIONAL WEATHER SERVICE DES MOINES IA
400 AM CST FRI DEC 02 2016

NOTE: "FAIR" INDICATES FEW OR NO CLOUDS BELOW 12,000 FEET WITH NO
SIGNIFICANT WEATHER AND/OR OBSTRUCTIONS TO VISIBILITY.

* - THESE STATIONS ARE NOT NWS STATIONS...THUS NOT UNDER NWS
QUALITY CONTROL.  THEY ALSO DO NOT REPORT WEATHER SUCH
AS PRECIPITATION OR FOG.

IAZ001>003-012>014-020>022-031>034-043>046-021100-
   NORTHWEST IOWA

CITY           SKY/WX    TMP DP  RH WIND       PRES   REMARKS
CARROLL *      CLOUDY    34  32  93 NW7       30.13S WCI  28
CHEROKEE *     CLOUDY    33  33  99 W5        30.14R WCI  29
DENISON *      CLOUDY    32  30  93 NW6       30.12S WCI  26
LE MARS *      CLOUDY    34  32  93 W5        30.16R WCI  30
ORANGE CITY *  CLOUDY    32  32 100 CALM      30.13R
SHELDON *      CLOUDY    32  32 100 N3        30.11S FOG
SIOUX CITY     CLOUDY    35  32  88 W6        30.16S WCI  30
SPENCER        CLOUDY    33  30  88 NW8       30.13R WCI  26
STORM LAKE *   CLOUDY    32  32 100 W6        30.12S FOG     WCI  26
$$

IAZ055>058-069>071-079>083-090>094-021100-
   SOUTHWEST IOWA

CITY           SKY/WX    TMP DP  RH WIND       PRES   REMARKS
ATLANTIC *     CLOUDY    32  30  93 W5        30.15R WCI  27
AUDUBON *      CLOUDY    34  28  80 CALM      30.14S
CLARINDA *       N/A     28  28 100 CALM      30.18S
COUNCIL BLFS * CLOUDY    32  28  86 NW3       30.16R
CRESTON *      CLOUDY    30  28  93 NW7       30.15R WCI  23
HARLAN  *      CLOUDY    32  32 100 W6        30.18R WCI  26
LAMONI         CLOUDY    29  25  85 W7        30.14R WCI  22
RED OAK *      CLOUDY    30  28  93 CALM      30.17R
SHENANDOAH *   PTCLDY    28  27  93 CALM      30.18R
$$

IAZ047>049-059>061-072>074-084-021100-
   CENTRAL IOWA

CITY           SKY/WX    TMP DP  RH WIND       PRES   REMARKS
AMES           CLOUDY    34  33  96 NW6       30.13S WCI  29
ANKENY *       CLOUDY    36  34  93 NW7       30.15R WCI  30
BOONE *          N/A     34  32  93 W6        30.12S WCI  29
CHARITON *       N/A     34  30  86 W6        30.13S WCI  29
DES MOINES     CLOUDY    35  31  85 NW8       30.14R WCI  29
GRINNELL*      CLOUDY    34  32  92 W6        30.12S WCI  29
KNOXVILLE *    CLOUDY    36  30  80 NW7       30.12S WCI  30
MARSHALLTOWN   CLOUDY    34  33  96 W8        30.12R WCI  27
NEWTON *       CLOUDY    34  32  93 W8        30.12S WCI  27
PELLA *        CLOUDY    36  32  85 W6        30.14S WCI  31
PERRY *        CLOUDY    34  33  96 W7        30.14S WCI  28
$$

IAZ004>006-015-016-023>025-035-036-021100-
   NORTH CENTRAL IOWA

CITY           SKY/WX    TMP DP  RH WIND       PRES   REMARKS
ALGONA *       CLOUDY    32  30  93 N7        30.12R WCI  26
CLARION *      CLOUDY    34  34 100 N8        30.12R WCI  27
ESTHERVILLE    CLOUDY    30  28  92 N12       30.12R WCI  20
FORT DODGE *   CLOUDY    34  30  86 CALM      30.13S
MASON CITY     CLOUDY    32  27  81 NW12      30.12R WCI  23
FOREST CITY *  CLOUDY    32  30  93 NW13      30.12R WCI  22
WEBSTER CITY * CLOUDY    34  34 100 W6        30.11R WCI  29
IOWA FALLS *   CLOUDY    35  33  93 W7        30.12R WCI  29
$$

IAZ007>011-017>019-026>030-037>042-050>054-066-021100-
   NORTHEAST IOWA

CITY           SKY/WX    TMP DP  RH WIND       PRES   REMARKS
CEDAR RAPIDS   CLOUDY    34  34 100 W8        30.10R WCI  27
CHARLES CITY * CLOUDY    34  32  93 NW13      30.10R WCI  25
CLINTON *      CLOUDY    36  34  92 W9        30.10R WCI  29
DECORAH *      CLOUDY    34  32  93 NW8       30.06R WCI  27
DUBUQUE        CLOUDY    34  33  96 W7        30.07R WCI  28
MONTICELLO *   CLOUDY    36  34  93 W8        30.09R WCI  29
OELWEIN *      CLOUDY    34  34 100 NW9       30.09R WCI  26
WATERLOO       CLOUDY    35  32  88 W7        30.10R WCI  29
$$

IAZ064-065-067-068-078-021100-
   EAST CENTRAL IOWA

CITY           SKY/WX    TMP DP  RH WIND       PRES   REMARKS
DAVENPORT      CLOUDY    36  33  89 W8        30.10R WCI  30
IOWA CITY      CLOUDY    37  32  82 W7        30.13S WCI  32
MUSCATINE *    CLOUDY    37  32  81 W7        30.13S WCI  32
QUAD CITIES    CLOUDY    37  32  82 W8        30.11R WCI  31
$$

IAZ062-063-075>077-085>089-095>099-021100-
   SOUTHEAST IOWA

CITY           SKY/WX    TMP DP  RH WIND       PRES   REMARKS
BURLINGTON     CLOUDY    36  31  82 W6        30.12S WCI  31
FAIRFIELD *    CLOUDY    36  30  80 W7        30.13R WCI  30
FORT MADISON * CLOUDY    36  30  80 W5        30.13S WCI  32
KEOKUK *       CLOUDY    36  30  80 W5        30.13S WCI  32
OSKALOOSA *    CLOUDY    34  31  90 W7        30.13S WCI  28
CENTERVILLE *  MOCLDY    32  28  86 CALM      30.15R
OTTUMWA        CLOUDY    36  29  75 W8        30.13R WCI  30
WASHINGTON *   CLOUDY    36  32  87 W9        30.14R WCI  29
$$

ABBREVIATIONS USED IN REMARKS
   TC - TEMPERATURES IN CELSIUS
  WCI - WIND CHILL INDEX
   HX - HEAT INDEX
  VSB - VISIBILITY
$$





USA.gov is the U.S. government's official web portal to all federal, state and local government web resources and services.